Powrót do katalogu

DEB FREGAT

AktywnyŁącznośćSSO
NORAD 67249·PAYLOAD·🇷🇺 Russia
Ta nazwa satelity nie została jeszcze potwierdzona przez oficjalne źródła.

Wystrzelony Dec 28, 2025 z Vostochny Cosmodrome

Loading…

Następne Przeloty (najbliższe 24 godziny)

TLE

ŚwieżeSource: Space-Track

Epoka: Sep 14, 2026, 09:49 UTC

1 67249U 25313B   26257.40906082  .00002093  00000-0  16061-3 0  9994
2 67249  97.5019 316.4458 0292158  45.1941 317.2624 14.74681186 38285

Śledź DEB FREGAT w czasie rzeczywistym z AllMySat

Download on the App Store